CDT,Max TemperatureF,Mean TemperatureF,Min TemperatureF,Max Dew PointF,MeanDew PointF,Min DewpointF,Max Humidity, Mean Humidity, Min Humidity, Max Sea Level PressureIn, Mean Sea Level PressureIn, Min Sea Level PressureIn, Max VisibilityMiles, Mean VisibilityMiles, Min VisibilityMiles, Max Wind SpeedMPH, Mean Wind SpeedMPH, Max Gust SpeedMPH,PrecipitationIn, CloudCover, Events, WindDirDegrees
2013-3-1,60,50,40,36,31,25,79,54,28,30.20,30.16,30.11,10,10,8,23,8,30,0.00,0,,318
2013-3-2,49,42,34,32,28,24,82,62,42,30.28,30.24,30.18,10,10,10,22,8,29,0.00,1,,359
2013-3-3,57,44,30,39,31,25,92,62,32,30.31,30.23,30.11,10,10,8,12,3,20,0.00,0,,190
2013-3-4,72,60,47,58,51,40,86,70,53,30.11,29.99,29.91,10,10,10,25,12,33,0.00,4,,178
2013-3-5,74,64,53,61,48,28,87,57,26,30.26,30.06,29.90,10,10,9,28,12,35,T,4,,293
2013-3-6,63,52,40,40,28,24,76,50,23,30.38,30.30,30.25,10,10,10,16,7,22,0.00,0,,359
2013-3-7,65,52,39,43,34,26,92,58,24,30.35,30.28,30.24,10,10,8,9,2,13,0.00,0,,78
2013-3-8,70,56,41,52,42,34,96,61,26,30.30,30.23,30.14,10,8,2,9,3,28,0.00,1,,170
2013-3-9,71,62,53,61,55,45,83,72,61,30.14,30.03,29.91,10,10,10,18,7,29,0.00,4,,148
2013-3-10,76,65,54,64,59,52,93,79,64,29.96,29.89,29.84,10,7,2,28,11,38,1.01,7,Rain-Thunderstorm,169
2013-3-11,59,52,45,54,40,32,93,66,39,30.07,30.00,29.94,10,9,2,22,11,29,0.67,4,Rain-Thunderstorm,331
2013-3-12,67,54,40,43,36,32,86,58,29,30.25,30.16,30.07,10,10,10,13,3,22,0.00,0,,15
2013-3-13,67,56,45,40,34,26,71,47,22,30.43,30.35,30.26,10,10,10,21,7,36,0.00,0,,17
2013-3-14,70,56,41,43,35,27,82,53,23,30.45,30.38,30.31,10,10,10,10,3,16,0.00,0,,196
2013-3-15,74,60,46,54,48,42,93,66,38,30.31,30.22,30.14,10,10,7,21,7,28,0.00,0,,202
2013-3-16,75,63,50,58,53,48,96,73,49,30.11,30.03,29.95,10,7,1,18,7,25,0.00,2,,189
2013-3-17,77,69,60,66,62,58,93,75,56,29.96,29.87,29.80,10,9,7,22,9,29,T,4,Rain,172
2013-3-18,82,75,67,67,65,60,90,73,55,29.92,29.83,29.77,10,8,5,18,10,30,0.00,5,,211
2013-3-19,78,67,55,59,49,41,78,57,35,30.02,29.97,29.93,10,10,10,20,6,26,0.00,2,,48
2013-3-20,71,60,49,49,40,27,83,53,23,30.20,30.09,29.99,10,10,7,28,10,35,0.19,2,Rain,21
2013-3-21,68,57,46,48,39,35,71,52,32,30.05,29.96,29.83,10,10,10,16,5,24,0.00,2,,121
2013-3-22,79,68,57,68,62,48,90,79,67,29.85,29.78,29.73,10,9,3,16,7,22,0.00,7,Rain,165
2013-3-23,73,70,67,68,67,66,100,92,84,29.81,29.69,29.57,9,3,0,10,3,14,0.03,8,Fog-Rain,98
2013-3-24,69,57,45,66,48,28,90,60,30,30.08,29.81,29.62,10,9,3,26,14,35,0.00,4,,330
2013-3-25,60,49,37,28,23,20,64,42,20,30.31,30.20,30.10,10,10,10,22,12,28,0.00,0,,350
2013-3-26,57,47,36,35,24,18,79,53,26,30.45,30.38,30.32,10,10,10,21,8,25,0.00,0,,350
2013-3-27,65,51,36,40,30,24,82,52,22,30.46,30.36,30.27,10,10,10,13,2,15,0.00,0,,172
2013-3-28,71,55,39,50,43,37,93,63,32,30.36,30.30,30.24,10,10,6,13,4,16,0.00,1,,179
2013-3-29,75,61,47,55,45,24,93,55,17,30.31,30.25,30.19,10,9,4,14,5,20,0.00,0,,182
2013-3-30,76,67,57,60,57,55,93,73,53,30.19,30.12,30.04,10,9,5,20,7,26,0.00,3,,181
2013-3-31,79,68,57,64,61,55,100,79,58,30.03,29.99,29.93,10,6,0,35,8,44,0.30,6,Fog-Rain-Thunderstorm,204